This is the latest recevied weather packets stored in our database for station/object XQ6AK-15. If no packets are shown the sender has not sent any weather packets the latest 10 day(s).
| Time | Temp. | Humidity | Pressure | Rain* | Wind** | Luminosity | Snow |
|---|---|---|---|---|---|---|---|
| 1787746551 | 9.44° C | 99% | 998.3 hPa | 0 mm | - | 14 W/m² | - |
| 1787746245 | 9.44° C | 99% | 998.3 hPa | 0 mm | - | 10 W/m² | - |
| 1787745939 | 9.44° C | 98% | 998.3 hPa | 0 mm | - | 12 W/m² | - |
| 1787745638 | 9.44° C | 98% | 998.3 hPa | 0 mm | - | 12 W/m² | - |
| 1787745333 | 9.44° C | 98% | 998.4 hPa | 0 mm | - | 7 W/m² | - |
| 1787745032 | 8.89° C | 99% | 998.3 hPa | 0 mm | - | 6 W/m² | - |
| 1787744728 | 8.89° C | 99% | 998.3 hPa | 0 mm | - | 4 W/m² | - |
| 1787744425 | 8.89° C | 99% | 998.1 hPa | 0 mm | - | 4 W/m² | - |
| 1787744120 | 8.89° C | 99% | 998 hPa | 0 mm | - | 3 W/m² | - |
| 1787743815 | 8.89° C | 99% | 998 hPa | 0 mm | - | 2 W/m² | - |
| 1787743509 | 8.89° C | 99% | 998 hPa | 0 mm | - | 1 W/m² | - |
| 1787743205 | 8.89° C | 99% | 997.8 hPa | 0 mm | - | 0 W/m² | - |
| 1787742901 | 8.89° C | 99% | 998.1 hPa | 0 mm | - | 0 W/m² | - |
| 1787742596 | 8.33° C | 99% | 997.7 hPa | 0 mm | - | 0 W/m² | - |
| 1787742291 | 8.33° C | 99% | 998 hPa | 0 mm | - | 0 W/m² | - |
| 1787741986 | 8.33° C | 99% | 998 hPa | 0 mm | - | 0 W/m² | - |
| 1787741677 | 8.33° C | 99% | 997.7 hPa | 0 mm | - | 0 W/m² | - |
| 1787741373 | 8.33° C | 99% | 997.7 hPa | 1.78 mm | - | 0 W/m² | - |
| 1787741071 | 8.33° C | 99% | 997.6 hPa | 1.78 mm | - | 0 W/m² | - |
| 1787740767 | 8.33° C | 99% | 997.6 hPa | 0 mm | - | 0 W/m² | - |
| 1787740465 | 7.78° C | 99% | 997.4 hPa | 0 mm | - | 0 W/m² | - |
| 1787740160 | 7.78° C | 99% | 997.6 hPa | 0 mm | - | 0 W/m² | - |
| 1787739856 | 7.78° C | 99% | 997.6 hPa | 0 mm | - | 0 W/m² | - |
| 1787739553 | 7.78° C | 99% | 997.6 hPa | 0 mm | - | 0 W/m² | - |
| 1787739252 | 7.78° C | 99% | 997.7 hPa | 0 mm | - | 0 W/m² | - |
* Rain latest hour (hover to see other rain measurements)
** Current wind speed in m/s (hover to see current wind gust speed)